TimeGMT,TemperatureF,Dew PointF,Humidity,Sea Level PressureIn,VisibilityMPH,Wind Direction,Wind SpeedMPH,Gust SpeedMPH,PrecipitationIn,Events,Conditions,WindDirDegrees,DateUTC
12:20 AM,42.8,39.2,87,29.47,6.2,SW,6.9,-,N/A,,Scattered Clouds,220,2012-12-16 00:20:00
12:50 AM,42.8,39.2,87,29.47,6.2,SSW,6.9,-,N/A,,Scattered Clouds,210,2012-12-16 00:50:00
1:20 AM,41.0,39.2,93,29.47,6.2,SSW,4.6,-,N/A,,Mostly Cloudy,200,2012-12-16 01:20:00
1:50 AM,41.0,39.2,93,29.47,6.2,South,3.5,-,N/A,,Unknown,170,2012-12-16 01:50:00
2:20 AM,41.0,39.2,93,29.47,6.2,Variable,2.3,-,N/A,,Unknown,0,2012-12-16 02:20:00
2:50 AM,40,39,94,29.49,15,South,3.5,,,,,190,2012-12-16 02:50:00
2:50 AM,41.0,39.2,93,29.47,-9999.0,SSW,4.6,-,N/A,,Clear,200,2012-12-16 02:50:00
3:20 AM,41.0,39.2,93,29.47,6.2,SSW,5.8,-,N/A,,Partly Cloudy,200,2012-12-16 03:20:00
3:50 AM,42.8,39.2,87,29.50,6.2,SSW,5.8,-,N/A,,Partly Cloudy,200,2012-12-16 03:50:00
4:20 AM,42.8,39.2,87,29.50,6.2,SSW,5.8,-,N/A,,Partly Cloudy,210,2012-12-16 04:20:00
4:50 AM,42.8,39.2,87,29.50,6.2,SSW,4.6,-,N/A,,Partly Cloudy,210,2012-12-16 04:50:00
5:20 AM,42.8,41.0,93,29.50,6.2,SSW,5.8,-,N/A,,Partly Cloudy,210,2012-12-16 05:20:00
5:50 AM,42,40,91,29.52,14,SW,5.8,,,,,220,2012-12-16 05:50:00
5:50 AM,42.8,39.2,87,29.50,6.2,SW,4.6,-,N/A,,Partly Cloudy,230,2012-12-16 05:50:00
6:20 AM,41.0,39.2,93,29.50,6.2,SW,5.8,-,N/A,,Partly Cloudy,230,2012-12-16 06:20:00
6:50 AM,42.8,41.0,93,29.53,6.2,SW,8.1,-,N/A,,Scattered Clouds,220,2012-12-16 06:50:00
7:20 AM,42.8,41.0,93,29.53,6.2,SW,9.2,-,N/A,,Scattered Clouds,220,2012-12-16 07:20:00
7:50 AM,42.8,41.0,93,29.53,6.2,SW,8.1,-,N/A,,Scattered Clouds,230,2012-12-16 07:50:00
8:20 AM,42.8,41.0,93,29.53,6.2,SW,10.4,-,N/A,,Scattered Clouds,230,2012-12-16 08:20:00
8:50 AM,43,41,88,29.56,15,SW,6.9,,,,Partly Cloudy,230,2012-12-16 08:50:00
8:50 AM,42.8,41.0,93,29.56,6.2,WSW,8.1,-,N/A,,Partly Cloudy,240,2012-12-16 08:50:00
9:20 AM,44.6,41.0,87,29.56,6.2,SW,9.2,-,N/A,,Partly Cloudy,230,2012-12-16 09:20:00
9:50 AM,44.6,41.0,87,29.56,-9999.0,WSW,10.4,-,N/A,,Clear,240,2012-12-16 09:50:00
10:20 AM,46.4,41.0,81,29.56,-9999.0,WSW,11.5,-,N/A,,Clear,240,2012-12-16 10:20:00
10:50 AM,46.4,41.0,81,29.56,-9999.0,SW,8.1,-,N/A,,Clear,230,2012-12-16 10:50:00
11:20 AM,48.2,42.8,82,29.56,-9999.0,SW,10.4,-,N/A,,Clear,230,2012-12-16 11:20:00
11:50 AM,49,42,71,29.57,19,SW,9.2,,,,,230,2012-12-16 11:50:00
11:50 AM,50.0,42.8,76,29.56,6.2,WSW,10.4,-,N/A,,Partly Cloudy,240,2012-12-16 11:50:00
12:20 PM,50.0,42.8,76,29.56,6.2,SW,8.1,-,N/A,,Partly Cloudy,220,2012-12-16 12:20:00
12:50 PM,50.0,42.8,76,29.53,6.2,SSW,10.4,-,N/A,,Partly Cloudy,210,2012-12-16 12:50:00
1:20 PM,50.0,42.8,76,29.53,6.2,SSW,10.4,-,N/A,,Scattered Clouds,210,2012-12-16 13:20:00
1:50 PM,50.0,42.8,76,29.53,6.2,SSW,8.1,-,N/A,,Scattered Clouds,210,2012-12-16 13:50:00
2:20 PM,48.2,41.0,76,29.53,6.2,SSW,8.1,-,N/A,,Partly Cloudy,210,2012-12-16 14:20:00
2:50 PM,49,42,69,,16,South,9.2,,,,,190,2012-12-16 14:50:00
2:50 PM,48.2,41.0,76,29.53,6.2,SSW,9.2,-,N/A,,Partly Cloudy,200,2012-12-16 14:50:00
3:20 PM,48.2,41.0,76,29.50,6.2,SSE,8.1,-,N/A,,Scattered Clouds,160,2012-12-16 15:20:00
3:50 PM,46.4,41.0,81,29.50,6.2,SSE,6.9,-,N/A,,Scattered Clouds,150,2012-12-16 15:50:00
4:20 PM,48.2,42.8,82,29.53,6.2,SSW,10.4,-,N/A,Rain,Light Rain Showers,210,2012-12-16 16:20:00
4:50 PM,44.6,41.0,87,29.53,6.2,South,11.5,-,N/A,,Scattered Clouds,190,2012-12-16 16:50:00
5:20 PM,42.8,39.2,87,29.53,6.2,South,10.4,-,N/A,,Partly Cloudy,180,2012-12-16 17:20:00
5:50 PM,45,40,78,29.53,19,SSE,10.4,,,Rain,Light Rain Showers,160,2012-12-16 17:50:00
5:50 PM,42.8,39.2,87,29.53,6.2,SSE,9.2,-,N/A,,Partly Cloudy,160,2012-12-16 17:50:00
6:20 PM,42.8,41.0,93,29.50,6.2,South,10.4,21.9,N/A,,Partly Cloudy,180,2012-12-16 18:20:00
6:50 PM,42.8,41.0,93,29.50,6.2,South,10.4,-,N/A,,Partly Cloudy,180,2012-12-16 18:50:00
7:20 PM,44.6,41.0,87,29.50,6.2,SSE,9.2,-,N/A,,Partly Cloudy,160,2012-12-16 19:20:00
7:50 PM,42.8,41.0,93,29.50,6.2,SSE,9.2,-,N/A,,Partly Cloudy,160,2012-12-16 19:50:00
8:20 PM,42.8,41.0,93,29.50,6.2,SSE,8.1,-,N/A,,Partly Cloudy,160,2012-12-16 20:20:00
8:50 PM,44,42,89,29.50,16,SSE,9.2,,,Rain,Rain,160,2012-12-16 20:50:00
8:50 PM,42.8,41.0,93,29.50,6.2,South,6.9,-,N/A,,Partly Cloudy,170,2012-12-16 20:50:00
9:20 PM,44.6,41.0,87,29.50,6.2,South,10.4,-,N/A,,Scattered Clouds,190,2012-12-16 21:20:00
9:50 PM,44.6,42.8,93,29.47,6.2,SSW,8.1,-,N/A,,Scattered Clouds,210,2012-12-16 21:50:00
10:20 PM,44.6,41.0,87,29.47,6.2,SSW,9.2,-,N/A,,Partly Cloudy,200,2012-12-16 22:20:00
10:50 PM,42.8,41.0,93,29.47,-9999.0,SSW,8.1,-,N/A,,Clear,210,2012-12-16 22:50:00
11:20 PM,42.8,41.0,93,29.50,-9999.0,SSW,6.9,-,N/A,,Clear,200,2012-12-16 23:20:00
11:50 PM,43,41,92,29.50,12,South,9.2,,,,,180,2012-12-16 23:50:00
11:50 PM,42.8,41.0,93,29.50,-9999.0,South,9.2,-,N/A,,Clear,190,2012-12-16 23:50:00